TimeMST,TemperatureF,Dew PointF,Humidity,Sea Level PressureIn,VisibilityMPH,Wind Direction,Wind SpeedMPH,Gust SpeedMPH,PrecipitationIn,Events,Conditions,WindDirDegrees,DateUTC
12:53 AM,75.9,21.0,13,29.68,10.0,Calm,Calm,-,N/A,,Clear,0,2013-06-23 07:53:00
1:53 AM,75.0,21.0,13,29.68,10.0,SW,4.6,-,N/A,,Clear,220,2013-06-23 08:53:00
2:53 AM,71.1,21.9,16,29.69,10.0,SW,4.6,-,N/A,,Clear,220,2013-06-23 09:53:00
3:53 AM,70.0,21.9,16,29.69,10.0,South,3.5,-,N/A,,Clear,180,2013-06-23 10:53:00
4:53 AM,69.1,21.9,17,29.70,10.0,Calm,Calm,-,N/A,,Clear,0,2013-06-23 11:53:00
5:53 AM,69.1,19.9,15,29.71,10.0,ESE,4.6,-,N/A,,Clear,110,2013-06-23 12:53:00
6:53 AM,73.0,21.0,14,29.71,10.0,ESE,5.8,-,N/A,,Clear,120,2013-06-23 13:53:00
7:53 AM,80.1,23.0,12,29.71,10.0,Calm,Calm,-,N/A,,Clear,0,2013-06-23 14:53:00
8:53 AM,81.0,23.0,12,29.71,10.0,NNE,5.8,-,N/A,,Clear,30,2013-06-23 15:53:00
9:53 AM,84.0,24.1,11,29.70,10.0,NNE,5.8,-,N/A,,Clear,20,2013-06-23 16:53:00
10:53 AM,86.0,21.9,10,29.68,10.0,NNE,8.1,-,N/A,,Clear,30,2013-06-23 17:53:00
11:53 AM,90.0,21.9,8,29.65,10.0,North,10.4,-,N/A,,Clear,360,2013-06-23 18:53:00
12:53 PM,90.0,19.9,8,29.64,10.0,Calm,Calm,-,N/A,,Clear,0,2013-06-23 19:53:00
1:53 PM,93.0,10.0,5,29.60,10.0,WSW,8.1,19.6,N/A,,Clear,250,2013-06-23 20:53:00
2:53 PM,93.9,12.0,5,29.58,10.0,WSW,8.1,16.1,N/A,,Clear,240,2013-06-23 21:53:00
3:53 PM,93.0,12.9,5,29.56,10.0,SW,11.5,19.6,N/A,,Clear,220,2013-06-23 22:53:00
4:53 PM,93.0,15.1,6,29.54,10.0,SSW,13.8,19.6,N/A,,Clear,210,2013-06-23 23:53:00
5:53 PM,93.0,16.0,6,29.52,10.0,South,8.1,-,N/A,,Clear,190,2013-06-24 00:53:00
6:53 PM,91.0,15.1,6,29.52,10.0,South,9.2,17.3,N/A,,Clear,190,2013-06-24 01:53:00
7:53 PM,89.1,16.0,7,29.52,10.0,SW,8.1,-,N/A,,Clear,220,2013-06-24 02:53:00
8:53 PM,87.1,18.0,8,29.54,10.0,SW,11.5,17.3,N/A,,Clear,220,2013-06-24 03:53:00
9:53 PM,86.0,19.0,8,29.56,10.0,SW,13.8,21.9,N/A,,Clear,230,2013-06-24 04:53:00
10:53 PM,84.0,16.0,8,29.57,10.0,SW,11.5,20.7,N/A,,Clear,220,2013-06-24 05:53:00
11:53 PM,82.9,16.0,8,29.57,10.0,SW,12.7,19.6,N/A,,Clear,220,2013-06-24 06:53:00